Location: G�ndlingen
(48.0142°N, 7.6396°E)
Time: 19:16:47
(UTC+00:00)

Cosmos 2369 Rocket - Pass Details

Date: 05 July 2020
Orbit: 829 x 852 km, 71.0° (Epoch: 11 August)

Event Time Altitude Azimuth Distance (km) Brightness Sun altitude
Rises 21:53:12 0° 337° (NNW) 3,383 7.2 -15.8°
Reaches altitude 10° 21:56:32 10° 357° (N) 2,447 5.7 -16.0°
Maximum altitude 22:00:11 17° 38° (NE) 1,973 4.5 -16.2°
Drops below altitude 10° 22:03:50 10° 79° (E) 2,444 4.5 -16.5°
Enters shadow 22:06:47 - 98° (E) 3,264 5.0 -16.6°
